[[{"header":{"parameterUnit":"m.s-1","parameterCategory":1,"la1":30.2991,"la2":30.254,"lo1":-89.0895,"lo2":-89.0444,"dy":0.0017,"dx":0.0017,"nx":28,"ny":28,"refTime":"2024-07-14T03:00:00:Z","depth":0,"parameterNumber":2,"parameterNumberName":"U-component_of_WINDS"},"data":[0,0,0,0,0,0,0,0,0,0,0,0,0,0,0,0,0,0,0,0,0,0,0,0,0,0,0,0,0,0,0,0,0,0,0,0,0,0,0,0,0,0,0,0,0,0,0,0,0,0,0,0,0,0,0,0,0,0,3.4824,3.4825,0,3.489,3.4891,3.4892,3.4805,3.4801,3.4798,3.4795,3.4864,3.4869,3.4873,0,0,0,0,0,0,0,0,0,0,0,0,0,3.4623,3.4627,3.4824,3.4825,3.4826,3.489,3.4891,3.4892,3.4805,3.4801,3.4797,3.4794,3.4862,3.4868,3.4874,0,0,0,0,0,0,0,0,0,0,0,0,0,3.4702,3.4628,3.4824,3.479,3.4788,3.489,3.4891,3.4892,3.4806,3.4801,3.4796,3.4792,3.4861,3.4868,3.4875,3.5013,0,0,3.4896,3.49,0,0,0,0,0,0,0,0,3.4697,3.4709,3.4794,3.4793,3.479,3.4834,3.4845,3.4933,3.4807,3.4799,3.4795,3.479,3.4858,3.4865,3.4888,3.5016,3.5019,3.4897,3.4901,3.4904,3.4906,0,0,0,0,0,0,0,3.4692,3.4706,3.485,3.4796,3.4793,3.4772,3.4778,3.4861,3.4854,3.4799,3.4793,3.4802,3.4856,3.4881,3.4889,3.502,3.4897,3.4903,3.4908,3.491,3.5262,3.5267,0,0,0,0,0,0,3.469,3.4702,3.4848,3.4852,3.4731,3.4779,3.4786,3.4825,3.4853,3.4853,3.4806,3.4798,3.4871,3.4881,3.4891,3.5052,3.4904,3.4911,3.4915,3.5257,3.5264,3.5269,0,0,0,0,0,0,3.4686,3.4704,3.4845,3.4775,3.4792,3.4788,3.4832,3.4829,3.4854,3.4858,3.4856,3.4833,3.4868,3.4881,3.4983,3.5054,3.4914,3.4921,3.5251,3.5259,3.5266,3.5378,0,0,0,0,0,0,3.4681,3.4703,3.4756,3.4777,3.4796,3.4937,3.4837,3.4833,3.4866,3.4856,3.4883,3.4883,3.4865,3.4972,3.499,3.5061,3.4926,3.5245,3.5255,3.5264,3.5368,3.5389,3.5406,0,0,0,0,0,3.4674,3.4786,3.4759,3.4778,3.4862,3.4941,3.4951,3.4928,3.4872,3.4925,3.4927,3.4882,3.5044,3.4984,3.5002,3.5077,3.524,3.5252,3.5263,3.536,3.5385,3.5406,0,0,0,0,0,0,3.4775,3.4788,3.4759,3.4881,3.491,3.4926,3.4992,3.4956,3.5002,3.4991,3.4961,3.4967,3.5075,3.5087,3.502,3.5211,3.5133,3.5148,3.5199,3.5223,3.5242,3.5236,3.4932,0,0,0,0,0,3.4811,3.4874,3.4883,3.4989,3.5005,3.4996,3.503,3.5009,3.5039,3.5051,3.5061,3.5091,3.5148,3.5187,3.524,3.537,3.5373,3.543,3.5449,3.5465,3.5478,3.5545,3.557,3.5306,3.5306,3.5306,0,0,3.4887,3.4902,3.4944,3.501,3.503,3.5095,3.5007,3.5081,3.5129,3.5062,3.5158,3.5167,3.5198,3.5314,3.5365,3.5326,3.5552,3.5479,3.5492,3.5497,3.5559,3.5584,3.5606,3.5314,3.5313,3.5312,0,0,3.5057,3.5076,3.5166,3.5188,3.5219,3.5212,3.5233,3.5254,3.5257,3.5353,3.5303,3.536,3.546,3.5483,3.5509,3.5686,3.5646,3.5705,3.5804,3.5869,3.589,3.5908,3.5969,3.5992,3.5718,3.5719,3.5719,0,3.5148,3.5244,3.5217,3.5293,3.5322,3.5264,3.5354,3.5377,3.5425,3.5446,3.5402,3.5524,3.5541,3.566,3.5703,3.5727,3.5749,3.5701,3.5889,3.5907,3.5924,3.5982,3.6005,3.5725,3.5725,3.5724,3.5723,0,3.5352,3.5419,3.5488,3.5534,3.5571,3.5655,3.5639,3.5681,3.5657,3.5654,3.5751,3.577,3.5824,3.5851,3.5829,3.5967,3.5941,3.5894,3.5814,3.5956,3.601,3.6032,3.5735,3.5733,3.5731,3.5729,0,0,3.5588,3.5616,3.5642,3.5661,3.569,3.5742,3.5821,3.5874,3.5909,3.5944,3.6008,3.6093,3.6049,3.6077,3.6057,3.6115,3.6252,3.606,3.606,3.6093,3.6401,3.6435,3.6461,3.6225,3.6229,3.6233,3.6398,0,3.5757,3.5894,3.5871,3.6003,3.6064,3.6009,3.6078,3.6103,3.6102,3.6154,3.6153,3.6213,3.6151,3.6167,3.6222,3.6223,3.6313,3.6211,3.6284,3.6287,3.6276,3.649,3.6527,3.6681,3.6419,3.6422,3.6425,0,3.5972,3.6013,3.6151,3.6168,3.6193,3.6256,3.63,3.6351,3.6377,3.6373,3.6404,3.6373,3.6451,3.6371,3.6478,3.6409,3.6438,3.6443,3.6448,3.6452,3.6363,3.6498,3.6731,3.6753,3.6458,3.6456,3.6453,0,3.6128,3.6217,3.631,3.6329,3.6352,3.6397,3.6409,3.6431,3.6463,3.6503,3.6523,3.6572,3.6598,3.6636,3.6618,3.6562,3.6727,3.6647,3.6724,3.6725,3.676,3.6758,3.6998,3.6782,3.6782,3.6782,3.6781,0,3.6317,3.6404,3.638,3.6438,3.6532,3.6504,3.6598,3.6604,3.6624,3.668,3.6637,3.6691,3.6665,3.6717,3.6704,3.6793,3.6806,3.6803,3.6798,3.6806,3.6806,3.6823,3.6811,3.6788,3.6786,3.6785,3.6784,0,3.6507,3.6495,3.6592,3.6606,3.6611,3.668,3.6691,3.6744,3.674,3.6812,3.6827,3.6821,3.6879,3.6866,3.6931,3.6922,3.7032,3.7015,3.7023,3.7018,3.7095,3.7087,3.7354,3.7386,3.7151,3.7153,3.7155,0,3.6628,3.6692,3.6712,3.6746,3.6761,3.6818,3.6849,3.6825,3.686,3.6894,3.6943,3.6997,3.704,3.7136,3.7137,3.7186,3.7168,3.7258,3.7175,3.718,3.7166,3.7162,3.7167,3.7274,3.7276,3.7279,3.728,0,3.6843,3.6833,3.6881,3.6926,3.6965,3.7,3.703,3.7061,3.7038,3.708,3.7139,3.7171,3.7236,3.7291,3.7335,3.7347,3.731,3.7307,3.7326,3.7334,3.7335,3.7333,3.7065,3.73,3.7298,3.7297,3.7296,3.7295,3.7,3.7054,3.7075,3.7129,3.7149,3.7178,3.7227,3.7228,3.7277,3.7327,3.731,3.7377,3.74,3.7456,3.7473,3.7524,3.749,3.752,3.7527,3.7534,3.7542,3.7328,3.7533,3.7532,3.7531,3.7531,3.753,0,3.7211,3.7221,3.7271,3.7314,3.7356,3.7317,3.7348,3.7386,3.7445,3.7469,3.7511,3.7578,3.763,3.7634,3.7682,3.7722,3.7706,3.7736,3.7731,3.7734,3.7571,3.7548,3.7748,3.7748,3.7748,3.7747,3.7747,3.7747,3.7325,3.7413,3.7406,3.7502,3.7512,3.7577,3.7597,3.7623,3.7642,3.7718,3.7761,3.7763,3.7779,3.7827,3.7873,3.7872,3.7891,3.7927,3.792,3.7768,3.7746,3.7725,3.7703,3.7932,3.7932,3.8078,3.8079,3.808]},{"header":{"parameterUnit":"m.s-1","parameterCategory":1,"la1":30.2991,"la2":30.254,"lo1":-89.0895,"lo2":-89.0444,"dy":0.0017,"dx":0.0017,"nx":28,"ny":28,"refTime":"2024-07-14T03:00:00:Z","depth":0,"parameterNumber":3,"parameterNumberName":"V-component_of_WINDS"},"data":[0,0,0,0,0,0,0,0,0,0,0,0,0,0,0,0,0,0,0,0,0,0,0,0,0,0,0,0,0,0,0,0,0,0,0,0,0,0,0,0,0,0,0,0,0,0,0,0,0,0,0,0,0,0,0,0,0,0,0.6635,0.6635,0,0.6661,0.6661,0.6661,0.6643,0.6643,0.6642,0.6641,0.6668,0.667,0.6671,0,0,0,0,0,0,0,0,0,0,0,0,0,0.6568,0.6569,0.6635,0.6635,0.6635,0.6661,0.6661,0.6662,0.6644,0.6643,0.6642,0.6641,0.6668,0.667,0.6671,0,0,0,0,0,0,0,0,0,0,0,0,0,0.6596,0.657,0.6635,0.6629,0.6629,0.6661,0.6661,0.6662,0.6644,0.6643,0.6641,0.664,0.6667,0.667,0.6672,0.671,0,0,0.6679,0.668,0,0,0,0,0,0,0,0,0.6594,0.6598,0.663,0.663,0.663,0.6648,0.6648,0.6678,0.6644,0.6638,0.6641,0.664,0.6663,0.6665,0.6673,0.6711,0.6712,0.6679,0.668,0.6681,0.6682,0,0,0,0,0,0,0,0.6593,0.6597,0.6645,0.663,0.663,0.6625,0.6628,0.6653,0.6657,0.6639,0.6637,0.6641,0.6662,0.6671,0.6673,0.6713,0.6679,0.6681,0.6682,0.6683,0.6782,0.6784,0,0,0,0,0,0,0.6591,0.6596,0.6644,0.6646,0.6609,0.6628,0.6631,0.6643,0.6657,0.6658,0.6642,0.664,0.6667,0.6671,0.6674,0.6719,0.6681,0.6683,0.6684,0.6781,0.6783,0.6784,0,0,0,0,0,0,0.659,0.6596,0.6643,0.662,0.6626,0.663,0.6644,0.6644,0.6653,0.6659,0.6659,0.665,0.6667,0.6671,0.6701,0.672,0.6684,0.6686,0.6779,0.6781,0.6783,0.6809,0,0,0,0,0,0,0.6588,0.6595,0.661,0.6621,0.6627,0.667,0.6646,0.6646,0.6656,0.6654,0.6667,0.6667,0.6666,0.6698,0.6703,0.6722,0.6688,0.6778,0.678,0.6783,0.6807,0.6812,0.6816,0,0,0,0,0,0.6586,0.6617,0.6611,0.6617,0.6646,0.6671,0.6675,0.6672,0.6658,0.6673,0.6677,0.6667,0.6716,0.6701,0.6707,0.6727,0.6777,0.678,0.6782,0.6805,0.6811,0.6816,0,0,0,0,0,0,0.6609,0.6618,0.6612,0.6648,0.6659,0.6668,0.6687,0.6679,0.6694,0.6692,0.6688,0.6691,0.6722,0.6727,0.6709,0.6764,0.6744,0.6749,0.6759,0.6765,0.677,0.6768,0.669,0,0,0,0,0,0.6618,0.6638,0.6645,0.6676,0.6681,0.6683,0.6694,0.6691,0.6702,0.6707,0.6713,0.6724,0.6741,0.6754,0.6771,0.6807,0.6809,0.6824,0.6829,0.6832,0.6836,0.6855,0.6861,0.6794,0.6794,0.6793,0,0,0.6638,0.6645,0.6658,0.6681,0.6689,0.6708,0.6687,0.6709,0.6724,0.671,0.6738,0.6743,0.6755,0.6788,0.6803,0.6794,0.6855,0.6836,0.6839,0.6841,0.6859,0.6865,0.6871,0.6796,0.6795,0.6795,0,0,0.6684,0.6692,0.6718,0.6726,0.6738,0.6738,0.6744,0.6755,0.6757,0.6785,0.6774,0.6791,0.6823,0.6831,0.684,0.6887,0.6878,0.6892,0.6917,0.6935,0.6941,0.6945,0.6962,0.6967,0.6896,0.6896,0.6896,0,0.6707,0.6737,0.6732,0.6755,0.6764,0.6752,0.6777,0.6786,0.6803,0.681,0.6798,0.6836,0.6844,0.6878,0.6889,0.6897,0.6903,0.6891,0.694,0.6945,0.6949,0.6965,0.6971,0.6897,0.6897,0.6897,0.6897,0,0.6764,0.6784,0.6804,0.682,0.6832,0.6856,0.6854,0.6867,0.6862,0.6864,0.6892,0.69,0.6917,0.6925,0.6921,0.6958,0.6952,0.6941,0.6921,0.6957,0.6972,0.6978,0.69,0.6899,0.6899,0.6898,0,0,0.6827,0.6839,0.6846,0.6852,0.6864,0.6879,0.6902,0.6919,0.6929,0.6941,0.696,0.6985,0.6974,0.6984,0.6981,0.6996,0.7032,0.6983,0.6983,0.6992,0.7073,0.7081,0.7088,0.7026,0.7027,0.7028,0.7071,0,0.6873,0.6913,0.6909,0.6947,0.6965,0.6952,0.6972,0.698,0.6982,0.6997,0.6999,0.7017,0.7001,0.7007,0.7022,0.7024,0.7048,0.7021,0.7043,0.7044,0.7041,0.7096,0.7105,0.7146,0.7077,0.7078,0.7079,0,0.6933,0.6946,0.6985,0.6992,0.7,0.7018,0.7032,0.7047,0.7056,0.7056,0.7065,0.7059,0.7081,0.706,0.709,0.7072,0.708,0.7083,0.7084,0.7087,0.7064,0.7099,0.7159,0.7165,0.7088,0.7087,0.7086,0,0.6975,0.7002,0.7028,0.7034,0.7043,0.7056,0.706,0.7068,0.7078,0.709,0.7096,0.7111,0.7119,0.713,0.7127,0.7113,0.7158,0.7137,0.7158,0.7158,0.7169,0.7168,0.7231,0.7174,0.7174,0.7174,0.7174,0,0.7027,0.7051,0.7047,0.7063,0.709,0.7084,0.7111,0.7113,0.712,0.7137,0.7126,0.7142,0.7137,0.7152,0.715,0.7174,0.7178,0.7178,0.7178,0.718,0.718,0.7185,0.7183,0.7176,0.7175,0.7175,0.7175,0,0.7078,0.7076,0.7104,0.711,0.7112,0.7131,0.7136,0.7151,0.7151,0.7171,0.7176,0.7176,0.7193,0.7191,0.721,0.7208,0.7239,0.7235,0.7236,0.7235,0.7256,0.7254,0.7325,0.7333,0.7271,0.7271,0.7272,0,0.7112,0.713,0.7137,0.7147,0.7152,0.7168,0.7178,0.7172,0.7182,0.7193,0.7207,0.7223,0.7235,0.7263,0.7264,0.7279,0.7275,0.7298,0.7277,0.7278,0.7275,0.7274,0.7275,0.7303,0.7304,0.7304,0.7305,0,0.7171,0.7169,0.7183,0.7196,0.7208,0.7218,0.7227,0.7236,0.7231,0.7243,0.726,0.7269,0.7288,0.7304,0.7317,0.7321,0.7312,0.7311,0.7317,0.7319,0.7319,0.7319,0.7248,0.731,0.7309,0.7309,0.7309,0.7308,0.7215,0.723,0.7237,0.7252,0.7258,0.7267,0.7281,0.7282,0.7296,0.731,0.7306,0.7325,0.7332,0.7348,0.7354,0.7368,0.7359,0.7368,0.737,0.7372,0.7374,0.7316,0.737,0.737,0.737,0.737,0.737,0,0.7274,0.7277,0.7291,0.7303,0.7315,0.7305,0.7314,0.7325,0.7341,0.7349,0.7361,0.7379,0.7394,0.7396,0.741,0.7421,0.7417,0.7425,0.7424,0.7425,0.7381,0.7375,0.7427,0.7427,0.7427,0.7427,0.7427,0.7427,0.7306,0.733,0.7328,0.7355,0.7358,0.7377,0.7383,0.739,0.7395,0.7417,0.7429,0.7429,0.7434,0.7448,0.7461,0.7461,0.7466,0.7476,0.7474,0.7434,0.7428,0.7422,0.7417,0.7477,0.7477,0.7516,0.7517,0.7517]}]]